RYR20KW LHBP-LIPH

Flight info

Callsign RYR20KW
Flight time 1h 13m
Altitude 36000
Route GILEP DCT ZOLKU DCT SUNIS DCT RADLY DCT UPETA DCT RIFEN/N0428F350 DCT ROSKA DCT TULIK M859 CHI N503 INBUT
Aircraft B738/M-SDE2E3FGHIRWXY/LB1

Departure

Time 2026-04-25 21:28
Airport Budapest Liszt Ferenc International Airport (LHBP)

Arrival

Time 2026-04-25 22:41
Airport Treviso Airport (LIPH)
Time Latitude Longitude Altitude Speed Heading
2026-04-25 20:28 47.43624 19.25912 455 ft 0 kts 312°
2026-04-25 21:14 47.43611 19.25935 456 ft 4 kts 297°
2026-04-25 21:15 47.43606 19.25970 456 ft 4 kts 253°
2026-04-25 21:15 47.43614 19.25992 456 ft 0 kts 222°
2026-04-25 21:18 47.43613 19.25992 456 ft 1 kts 222°
2026-04-25 21:18 47.43600 19.25974 453 ft 4 kts 223°
2026-04-25 21:19 47.43580 19.25947 456 ft 4 kts 223°
2026-04-25 21:19 47.43560 19.25920 456 ft 4 kts 222°
2026-04-25 21:19 47.43540 19.25894 455 ft 4 kts 222°
2026-04-25 21:19 47.43521 19.25868 456 ft 4 kts 222°
2026-04-25 21:20 47.43502 19.25842 456 ft 4 kts 222°
2026-04-25 21:20 47.43489 19.25825 456 ft 4 kts 222°
2026-04-25 21:20 47.43446 19.25767 456 ft 16 kts 222°
2026-04-25 21:20 47.43382 19.25682 455 ft 9 kts 221°
2026-04-25 21:21 47.43337 19.25622 455 ft 9 kts 222°
2026-04-25 21:21 47.43299 19.25556 456 ft 8 kts 248°
2026-04-25 21:21 47.43314 19.25480 455 ft 8 kts 313°
2026-04-25 21:21 47.43341 19.25410 456 ft 8 kts 272°
2026-04-25 21:22 47.43311 19.25345 456 ft 8 kts 225°
2026-04-25 21:22 47.43272 19.25291 456 ft 8 kts 222°
2026-04-25 21:22 47.43227 19.25231 456 ft 9 kts 222°
2026-04-25 21:22 47.43192 19.25183 456 ft 4 kts 222°
2026-04-25 21:23 47.43171 19.25155 456 ft 4 kts 222°
2026-04-25 21:23 47.43150 19.25128 455 ft 0 kts 222°
2026-04-25 21:26 47.43148 19.25124 455 ft 3 kts 222°
2026-04-25 21:26 47.43114 19.25079 456 ft 7 kts 222°
2026-04-25 21:26 47.43076 19.25028 456 ft 7 kts 222°
2026-04-25 21:26 47.43071 19.24990 456 ft 4 kts 294°
2026-04-25 21:27 47.43092 19.24955 455 ft 6 kts 312°
2026-04-25 21:27 47.43225 19.24739 455 ft 63 kts 312°
2026-04-25 21:27 47.43682 19.24001 451 ft 129 kts 312°
2026-04-25 21:27 47.44394 19.22854 646 ft 164 kts 312°
2026-04-25 21:28 47.45177 19.21585 1328 ft 168 kts 310°
2026-04-25 21:28 47.45971 19.20301 2124 ft 180 kts 310°
2026-04-25 21:28 47.46886 19.18805 2342 ft 213 kts 310°
2026-04-25 21:28 47.47939 19.17089 2768 ft 235 kts 309°
2026-04-25 21:29 47.48753 19.14946 3526 ft 245 kts 286°
2026-04-25 21:29 47.48874 19.12398 4271 ft 259 kts 263°
2026-04-25 21:29 47.48223 19.09943 5414 ft 260 kts 240°
2026-04-25 21:29 47.46935 19.07958 5981 ft 288 kts 221°
2026-04-25 21:30 47.45085 19.06477 6484 ft 305 kts 206°
2026-04-25 21:30 47.43151 19.05329 6828 ft 293 kts 206°
2026-04-25 21:30 47.41313 19.04175 7021 ft 284 kts 208°
2026-04-25 21:30 47.40111 19.03368 7119 ft 289 kts 209°
2026-04-25 21:31 47.37690 19.01690 8432 ft 283 kts 210°
2026-04-25 21:31 47.35900 19.00443 9304 ft 288 kts 210°
2026-04-25 21:31 47.34129 18.99193 10096 ft 292 kts 210°
2026-04-25 21:31 47.32358 18.97669 10609 ft 302 kts 226°
2026-04-25 21:32 47.31183 18.95050 10860 ft 316 kts 254°
2026-04-25 21:32 47.30919 18.91839 11488 ft 320 kts 276°
2026-04-25 21:32 47.31436 18.88660 12295 ft 321 kts 291°
2026-04-25 21:32 47.32376 18.85671 13141 ft 324 kts 296°
2026-04-25 21:33 47.33436 18.82719 13917 ft 328 kts 297°
2026-04-25 21:33 47.34516 18.79743 14644 ft 330 kts 297°
2026-04-25 21:33 47.35587 18.76733 15386 ft 332 kts 296°
2026-04-25 21:33 47.36647 18.73689 16130 ft 335 kts 296°
2026-04-25 21:34 47.37702 18.70611 16848 ft 338 kts 295°
2026-04-25 21:34 47.38759 18.67499 17566 ft 340 kts 295°
2026-04-25 21:34 47.39805 18.64405 18268 ft 343 kts 295°
2026-04-25 21:34 47.40875 18.61231 18745 ft 349 kts 295°
2026-04-25 21:35 47.41908 18.57979 19422 ft 348 kts 290°
2026-04-25 21:35 47.42683 18.54589 20049 ft 351 kts 286°
2026-04-25 21:35 47.43339 18.51178 20544 ft 356 kts 285°
2026-04-25 21:35 47.44001 18.47639 21120 ft 359 kts 285°
2026-04-25 21:36 47.44691 18.44039 21736 ft 361 kts 286°
2026-04-25 21:36 47.45384 18.40516 22329 ft 363 kts 287°
2026-04-25 21:36 47.46104 18.36928 22901 ft 366 kts 287°
2026-04-25 21:36 47.46836 18.33312 23465 ft 369 kts 287°
2026-04-25 21:37 47.47573 18.29671 23952 ft 371 kts 287°
2026-04-25 21:37 47.48073 18.27198 24275 ft 372 kts 287°
2026-04-25 21:37 47.49000 18.22311 24893 ft 374 kts 284°
2026-04-25 21:37 47.49619 18.18547 25267 ft 379 kts 283°
2026-04-25 21:38 47.50225 18.14737 25681 ft 382 kts 283°
2026-04-25 21:38 47.50834 18.10909 26158 ft 383 kts 283°
2026-04-25 21:38 47.51448 18.07100 26616 ft 384 kts 283°
2026-04-25 21:38 47.52074 18.03247 27047 ft 386 kts 284°
2026-04-25 21:39 47.52685 17.99503 27443 ft 388 kts 284°
2026-04-25 21:39 47.53321 17.95615 27846 ft 390 kts 284°
2026-04-25 21:39 47.53960 17.91700 28246 ft 392 kts 284°
2026-04-25 21:39 47.54600 17.87767 28644 ft 394 kts 283°
2026-04-25 21:40 47.54990 17.83779 28964 ft 397 kts 272°
2026-04-25 21:40 47.54846 17.79694 29430 ft 398 kts 265°
2026-04-25 21:40 47.54307 17.75655 29789 ft 403 kts 256°
2026-04-25 21:40 47.53303 17.71746 30126 ft 408 kts 251°
2026-04-25 21:41 47.52209 17.67875 30441 ft 409 kts 251°
2026-04-25 21:41 47.51101 17.63993 30797 ft 409 kts 251°
2026-04-25 21:41 47.49997 17.60116 31206 ft 408 kts 251°
2026-04-25 21:41 47.48901 17.56250 31595 ft 407 kts 251°
2026-04-25 21:42 47.47811 17.52384 31939 ft 408 kts 251°
2026-04-25 21:42 47.46724 17.48515 32268 ft 408 kts 251°
2026-04-25 21:42 47.45637 17.44642 32634 ft 407 kts 251°
2026-04-25 21:42 47.44552 17.40779 33008 ft 407 kts 251°
2026-04-25 21:43 47.43468 17.36919 33341 ft 407 kts 251°
2026-04-25 21:43 47.42381 17.33057 33654 ft 407 kts 251°
2026-04-25 21:43 47.41296 17.29207 33984 ft 407 kts 251°
2026-04-25 21:43 47.40203 17.25332 34141 ft 410 kts 251°
2026-04-25 21:44 47.39117 17.21490 34389 ft 411 kts 251°
2026-04-25 21:44 47.38017 17.17609 34746 ft 408 kts 251°
2026-04-25 21:44 47.35840 17.09945 35381 ft 405 kts 250°
2026-04-25 21:45 47.34752 17.06121 35698 ft 403 kts 250°
2026-04-25 21:45 47.34386 17.04837 35806 ft 403 kts 250°
2026-04-25 21:45 47.32609 16.98610 35973 ft 407 kts 250°
2026-04-25 21:46 47.30403 16.90895 36000 ft 408 kts 250°
2026-04-25 21:46 47.28208 16.83259 35997 ft 401 kts 250°
2026-04-25 21:47 47.26031 16.75697 36007 ft 401 kts 250°
2026-04-25 21:47 47.23846 16.68130 36015 ft 402 kts 250°
2026-04-25 21:48 47.21646 16.60533 36004 ft 405 kts 250°
2026-04-25 21:48 47.19431 16.52914 36011 ft 406 kts 249°
2026-04-25 21:49 47.17200 16.45259 36009 ft 408 kts 249°
2026-04-25 21:49 47.14952 16.37572 36009 ft 410 kts 249°
2026-04-25 21:50 47.12267 16.30152 36025 ft 414 kts 241°
2026-04-25 21:50 47.09173 16.23043 36017 ft 415 kts 240°
2026-04-25 21:51 47.06092 16.15961 36001 ft 414 kts 240°
2026-04-25 21:51 47.03019 16.08834 36011 ft 413 kts 240°
2026-04-25 21:52 47.00460 16.02884 36014 ft 412 kts 240°
2026-04-25 21:52 46.97457 15.95910 36013 ft 411 kts 240°
2026-04-25 21:53 46.94425 15.88884 36019 ft 409 kts 240°
2026-04-25 21:53 46.91383 15.81855 36011 ft 408 kts 240°
2026-04-25 21:53 46.89874 15.78377 35722 ft 402 kts 240°
2026-04-25 21:54 46.88395 15.74975 35451 ft 390 kts 240°
2026-04-25 21:54 46.86964 15.71690 35182 ft 377 kts 240°
2026-04-25 21:54 46.85576 15.68505 34925 ft 368 kts 240°
2026-04-25 21:54 46.84198 15.65339 34687 ft 372 kts 240°
2026-04-25 21:55 46.82793 15.62110 34472 ft 380 kts 240°
2026-04-25 21:55 46.81362 15.58825 34256 ft 387 kts 240°
2026-04-25 21:55 46.79903 15.55484 34024 ft 392 kts 240°
2026-04-25 21:55 46.78431 15.52122 33759 ft 393 kts 240°
2026-04-25 21:56 46.76973 15.48798 33497 ft 395 kts 240°
2026-04-25 21:56 46.75974 15.46521 33318 ft 396 kts 240°
2026-04-25 21:56 46.74020 15.42078 32967 ft 389 kts 240°
2026-04-25 21:56 46.72573 15.38792 32694 ft 382 kts 240°
2026-04-25 21:57 46.71148 15.35557 32429 ft 378 kts 239°
2026-04-25 21:57 46.69732 15.32342 32175 ft 378 kts 239°
2026-04-25 21:57 46.68310 15.29115 32070 ft 378 kts 239°
2026-04-25 21:58 46.65441 15.22624 32052 ft 384 kts 239°
2026-04-25 21:58 46.62346 15.16259 32029 ft 384 kts 235°
2026-04-25 21:59 46.59086 15.10119 32020 ft 386 kts 235°
2026-04-25 21:59 46.55745 15.03834 32052 ft 398 kts 235°
2026-04-25 22:00 46.50720 14.94330 32043 ft 400 kts 235°
2026-04-25 22:00 46.47337 14.87930 32042 ft 399 kts 235°
2026-04-25 22:01 46.43970 14.81570 32040 ft 396 kts 235°
2026-04-25 22:01 46.41189 14.76325 32059 ft 394 kts 235°
2026-04-25 22:02 46.37326 14.69061 32036 ft 389 kts 235°
2026-04-25 22:02 46.34039 14.62893 32041 ft 386 kts 235°
2026-04-25 22:03 46.30763 14.56758 32031 ft 384 kts 235°
2026-04-25 22:03 46.27485 14.50631 32053 ft 392 kts 236°
2026-04-25 22:04 46.24085 14.44285 32057 ft 403 kts 236°
2026-04-25 22:04 46.20661 14.37922 32039 ft 399 kts 236°
2026-04-25 22:05 46.17267 14.31629 32043 ft 396 kts 236°
2026-04-25 22:05 46.13892 14.25377 32050 ft 395 kts 236°
2026-04-25 22:06 46.10497 14.19100 32066 ft 398 kts 236°
2026-04-25 22:06 46.07079 14.12799 32063 ft 399 kts 237°
2026-04-25 22:07 46.04408 14.07446 32066 ft 393 kts 244°
2026-04-25 22:07 46.01318 13.99587 32068 ft 389 kts 245°
2026-04-25 22:08 45.98689 13.92846 32068 ft 395 kts 245°
2026-04-25 22:08 45.95938 13.85910 32070 ft 401 kts 245°
2026-04-25 22:09 45.93160 13.78977 32060 ft 400 kts 245°
2026-04-25 22:09 45.90382 13.72061 32049 ft 400 kts 245°
2026-04-25 22:10 45.88998 13.68619 31905 ft 397 kts 245°
2026-04-25 22:10 45.87627 13.65217 31647 ft 390 kts 245°
2026-04-25 22:10 45.86285 13.61893 31271 ft 387 kts 245°
2026-04-25 22:10 45.84807 13.58661 30923 ft 389 kts 236°
2026-04-25 22:11 45.82954 13.55823 30557 ft 391 kts 229°
2026-04-25 22:11 45.80979 13.53139 30174 ft 391 kts 228°
2026-04-25 22:11 45.79000 13.50481 29746 ft 389 kts 228°
2026-04-25 22:11 45.77041 13.47847 29345 ft 385 kts 228°
2026-04-25 22:12 45.75101 13.45227 28975 ft 380 kts 228°
2026-04-25 22:12 45.73195 13.42642 28619 ft 376 kts 228°
2026-04-25 22:12 45.71310 13.40079 28252 ft 372 kts 228°
2026-04-25 22:12 45.70071 13.38392 28009 ft 370 kts 228°
2026-04-25 22:13 45.67595 13.35020 27518 ft 366 kts 227°
2026-04-25 22:13 45.65762 13.32524 27167 ft 362 kts 227°
2026-04-25 22:13 45.63943 13.30049 26805 ft 360 kts 227°
2026-04-25 22:13 45.62138 13.27595 26452 ft 357 kts 227°
2026-04-25 22:14 45.60949 13.25979 26223 ft 355 kts 227°
2026-04-25 22:16 45.59922 13.24585 26025 ft 353 kts 227°
2026-04-25 22:16 45.58159 13.22193 25679 ft 350 kts 227°
2026-04-25 22:16 45.56402 13.19811 25342 ft 347 kts 227°
2026-04-25 22:16 45.54671 13.17467 25000 ft 345 kts 227°
2026-04-25 22:17 45.52936 13.15119 24669 ft 343 kts 227°
2026-04-25 22:17 45.51238 13.12824 24338 ft 341 kts 227°
2026-04-25 22:17 45.49524 13.10508 24006 ft 338 kts 227°
2026-04-25 22:17 45.47819 13.08207 23667 ft 337 kts 226°
2026-04-25 22:18 45.46123 13.05920 23280 ft 335 kts 226°
2026-04-25 22:18 45.44438 13.03649 22922 ft 332 kts 226°
2026-04-25 22:18 45.42769 13.01404 22576 ft 329 kts 226°
2026-04-25 22:18 45.41171 12.99255 22283 ft 324 kts 226°
2026-04-25 22:19 45.39539 12.97062 21957 ft 321 kts 226°
2026-04-25 22:19 45.37923 12.94890 21619 ft 318 kts 226°
2026-04-25 22:19 45.36321 12.92739 21311 ft 315 kts 226°
2026-04-25 22:19 45.34731 12.90607 20975 ft 313 kts 226°
2026-04-25 22:20 45.33152 12.88494 20655 ft 311 kts 226°
2026-04-25 22:20 45.31622 12.86349 20334 ft 307 kts 232°
2026-04-25 22:20 45.30396 12.83877 19857 ft 309 kts 242°
2026-04-25 22:20 45.29327 12.81234 19497 ft 309 kts 242°
2026-04-25 22:21 45.28245 12.78601 19147 ft 308 kts 241°
2026-04-25 22:21 45.27163 12.75983 18809 ft 307 kts 241°
2026-04-25 22:21 45.26080 12.73377 18475 ft 306 kts 240°
2026-04-25 22:21 45.25000 12.70782 18123 ft 304 kts 240°
2026-04-25 22:22 45.23925 12.68203 17774 ft 303 kts 240°
2026-04-25 22:22 45.22857 12.65645 17430 ft 301 kts 240°
2026-04-25 22:22 45.21796 12.63104 17116 ft 298 kts 240°
2026-04-25 22:22 45.20742 12.60582 16786 ft 296 kts 240°
2026-04-25 22:23 45.19696 12.58080 16471 ft 294 kts 240°
2026-04-25 22:23 45.18669 12.55628 16158 ft 292 kts 240°
2026-04-25 22:23 45.17620 12.53123 15836 ft 290 kts 240°
2026-04-25 22:23 45.16593 12.50673 15530 ft 289 kts 240°
2026-04-25 22:24 45.15581 12.48261 15226 ft 288 kts 240°
2026-04-25 22:24 45.14561 12.45832 14922 ft 286 kts 240°
2026-04-25 22:24 45.13543 12.43408 14617 ft 285 kts 240°
2026-04-25 22:24 45.12529 12.40997 14307 ft 284 kts 240°
2026-04-25 22:25 45.11518 12.38595 14011 ft 284 kts 240°
2026-04-25 22:25 45.10508 12.36199 13685 ft 283 kts 240°
2026-04-25 22:25 45.09507 12.33829 13355 ft 282 kts 240°
2026-04-25 22:25 45.08632 12.31364 13013 ft 280 kts 257°
2026-04-25 22:26 45.08576 12.28662 12745 ft 274 kts 283°
2026-04-25 22:26 45.09324 12.26208 12458 ft 272 kts 305°
2026-04-25 22:26 45.10632 12.24299 12154 ft 271 kts 322°
2026-04-25 22:26 45.12133 12.22702 11868 ft 270 kts 324°
2026-04-25 22:27 45.13655 12.21125 11579 ft 273 kts 324°
2026-04-25 22:27 45.15205 12.19516 11273 ft 279 kts 324°
2026-04-25 22:27 45.16782 12.17868 10989 ft 284 kts 324°
2026-04-25 22:27 45.18376 12.16191 10671 ft 286 kts 324°
2026-04-25 22:28 45.19972 12.14503 10353 ft 285 kts 324°
2026-04-25 22:28 45.21551 12.12828 10142 ft 281 kts 325°
2026-04-25 22:28 45.23096 12.11185 9922 ft 277 kts 325°
2026-04-25 22:28 45.24635 12.09548 9609 ft 276 kts 325°
2026-04-25 22:29 45.26168 12.07915 9306 ft 274 kts 324°
2026-04-25 22:29 45.27688 12.06296 9014 ft 273 kts 324°
2026-04-25 22:29 45.29202 12.04684 8734 ft 271 kts 324°
2026-04-25 22:30 45.32203 12.01493 8178 ft 268 kts 324°
2026-04-25 22:30 45.33664 11.99937 7907 ft 266 kts 324°
2026-04-25 22:30 45.35124 11.98381 7635 ft 265 kts 323°
2026-04-25 22:30 45.36098 11.97343 7454 ft 264 kts 323°
2026-04-25 22:31 45.38060 11.95250 7081 ft 263 kts 323°
2026-04-25 22:31 45.39522 11.93689 6806 ft 262 kts 323°
2026-04-25 22:31 45.40981 11.92131 6523 ft 262 kts 323°
2026-04-25 22:31 45.42441 11.90566 6143 ft 265 kts 323°
2026-04-25 22:32 45.43911 11.88987 5823 ft 264 kts 322°
2026-04-25 22:32 45.45368 11.87422 5553 ft 262 kts 322°
2026-04-25 22:32 45.46805 11.85877 5371 ft 254 kts 322°
2026-04-25 22:32 45.48155 11.84424 5288 ft 234 kts 322°
2026-04-25 22:33 45.49399 11.83086 5188 ft 213 kts 322°
2026-04-25 22:33 45.50527 11.81872 5121 ft 194 kts 322°
2026-04-25 22:33 45.51567 11.80752 5042 ft 181 kts 322°
2026-04-25 22:33 45.52590 11.79909 4955 ft 167 kts 351°
2026-04-25 22:34 45.53779 11.80422 4971 ft 208 kts 41°
2026-04-25 22:34 45.54640 11.82187 5016 ft 229 kts 60°
2026-04-25 22:34 45.55395 11.84165 4912 ft 228 kts 62°
2026-04-25 22:34 45.56066 11.86217 4635 ft 227 kts 66°
2026-04-25 22:35 45.56639 11.88281 4326 ft 219 kts 69°
2026-04-25 22:35 45.57155 11.90242 4050 ft 203 kts 69°
2026-04-25 22:35 45.57623 11.92033 3798 ft 182 kts 69°
2026-04-25 22:35 45.58048 11.93651 3542 ft 166 kts 69°
2026-04-25 22:36 45.58429 11.95104 3389 ft 150 kts 69°
2026-04-25 22:36 45.58804 11.96529 3166 ft 152 kts 69°
2026-04-25 22:36 45.59172 11.97928 2958 ft 148 kts 69°
2026-04-25 22:36 45.59529 11.99283 2761 ft 144 kts 69°
2026-04-25 22:37 45.59882 12.00622 2578 ft 144 kts 69°
2026-04-25 22:37 45.60234 12.01959 2387 ft 144 kts 69°
2026-04-25 22:37 45.60585 12.03291 2191 ft 143 kts 69°
2026-04-25 22:37 45.60933 12.04611 2012 ft 141 kts 69°
2026-04-25 22:38 45.61280 12.05923 1821 ft 141 kts 69°
2026-04-25 22:38 45.61624 12.07228 1636 ft 140 kts 69°
2026-04-25 22:38 45.61967 12.08527 1442 ft 139 kts 68°
2026-04-25 22:38 45.62308 12.09814 1262 ft 138 kts 69°
2026-04-25 22:39 45.62643 12.11083 1078 ft 135 kts 68°
2026-04-25 22:39 45.62976 12.12338 918 ft 135 kts 68°
2026-04-25 22:39 45.63310 12.13596 741 ft 136 kts 69°
2026-04-25 22:39 45.63641 12.14848 559 ft 133 kts 69°
2026-04-25 22:40 45.63960 12.16066 409 ft 131 kts 69°
2026-04-25 22:40 45.64274 12.17238 229 ft 129 kts 68°
2026-04-25 22:40 45.64590 12.18428 85 ft 126 kts 68°
2026-04-25 22:40 45.64870 12.19481 62 ft 95 kts 69°
2026-04-25 22:41 45.65045 12.20146 61 ft 38 kts 69°
2026-04-25 22:41 45.65136 12.20487 61 ft 35 kts 68°
2026-04-25 22:41 45.65206 12.20747 55 ft 22 kts 67°
2026-04-25 22:41 45.65279 12.20775 55 ft 11 kts 342°
2026-04-25 22:42 45.65316 12.20755 58 ft 0 kts 339°
2026-04-25 22:43 45.65318 12.20754 58 ft 3 kts 340°
2026-04-25 22:44 45.65360 12.20731 59 ft 7 kts 333°
2026-04-25 22:44 45.65378 12.20671 58 ft 7 kts 261°
2026-04-25 22:44 45.65361 12.20601 56 ft 8 kts 249°
2026-04-25 22:44 45.65340 12.20522 59 ft 8 kts 249°
2026-04-25 22:45 45.65320 12.20444 61 ft 8 kts 248°
2026-04-25 22:45 45.65327 12.20404 61 ft 5 kts 321°
2026-04-25 22:45 45.65358 12.20384 61 ft 0 kts 338°
2026-04-25 22:45 45.65362 12.20382 55 ft 2 kts 337°
2026-04-25 22:46 45.65372 12.20375 58 ft 0 kts 337°